Back to catalog

STARLINK-5984

AliveCommunicationsSSO
NORAD 56329·PAYLOAD·🇺🇸 United States

Launched Apr 27, 2023 from Vandenberg Space Force Base

Loading…

Next Passes (next 24 hours)

TLE

FreshSource: CelesTrak SupGP

Epoch: Sep 14, 2026, 22:23 UTC

1 56329C 23058N   26257.93312500  .00053606  00000+0  16642-2 0  2575
2 56329  97.2849 254.8090 0001813  95.6446 303.3670 15.33407998    13

Track STARLINK-5984 in real time with AllMySat

Download on the App Store